owner,sensor,date,latitude,longitude,vertical_datum,mass_concentration_of_oxygen_in_sea_water,qcFlag 
DISL,ioos:station:DISL:DISL:1,2013-09-01T00:00:00Z,30.2513,-88.0778,1.811,1.64,1111122 
DISL,ioos:station:DISL:DISL:1,2013-09-01T00:30:00Z,30.2513,-88.0778,1.833,1.45,1111122 
DISL,ioos:station:DISL:DISL:1,2013-09-01T01:00:00Z,30.2513,-88.0778,1.838,1.52,1111122 
DISL,ioos:station:DISL:DISL:1,2013-09-01T01:30:00Z,30.2513,-88.0778,1.827,1.56,1111122 
DISL,ioos:station:DISL:DISL:1,2013-09-01T02:00:00Z,30.2513,-88.0778,1.839,1.48,1111122 
DISL,ioos:station:DISL:DISL:1,2013-09-01T02:30:00Z,30.2513,-88.0778,1.845,1.58,1111122 
DISL,ioos:station:DISL:DISL:1,2013-09-01T03:00:00Z,30.2513,-88.0778,1.883,1.33,1111122 
DISL,ioos:station:DISL:DISL:1,2013-09-01T03:30:00Z,30.2513,-88.0778,1.896,1.19,1111122 
DISL,ioos:station:DISL:DISL:1,2013-09-01T04:00:00Z,30.2513,-88.0778,1.91,1.44,1111122 
DISL,ioos:station:DISL:DISL:1,2013-09-01T04:30:00Z,30.2513,-88.0778,1.918,1.51,1111122 
DISL,ioos:station:DISL:DISL:1,2013-09-01T05:00:00Z,30.2513,-88.0778,1.905,1.37,1111122 
DISL,ioos:station:DISL:DISL:1,2013-09-01T05:30:00Z,30.2513,-88.0778,1.918,1.31,1111122 
DISL,ioos:station:DISL:DISL:1,2013-09-01T06:00:00Z,30.2513,-88.0778,1.915,1.3,1111122 
DISL,ioos:station:DISL:DISL:1,2013-09-01T06:30:00Z,30.2513,-88.0778,1.961,1.09,1111122 
DISL,ioos:station:DISL:DISL:1,2013-09-01T07:00:00Z,30.2513,-88.0778,1.986,1.04,1111122 
DISL,ioos:station:DISL:DISL:1,2013-09-01T07:30:00Z,30.2513,-88.0778,1.998,1.16,1111122 
DISL,ioos:station:DISL:DISL:1,2013-09-01T08:00:00Z,30.2513,-88.0778,2.033,1.1,1111122 
DISL,ioos:station:DISL:DISL:1,2013-09-01T08:30:00Z,30.2513,-88.0778,2.06,1.12,1111122 
DISL,ioos:station:DISL:DISL:1,2013-09-01T09:00:00Z,30.2513,-88.0778,2.078,0.93,1111122 
DISL,ioos:station:DISL:DISL:1,2013-09-01T09:30:00Z,30.2513,-88.0778,2.104,1.0,1111122 
DISL,ioos:station:DISL:DISL:1,2013-09-01T10:00:00Z,30.2513,-88.0778,2.125,1.01,1111122 
DISL,ioos:station:DISL:DISL:1,2013-09-01T10:30:00Z,30.2513,-88.0778,2.13,1.02,1111122 
DISL,ioos:station:DISL:DISL:1,2013-09-01T11:00:00Z,30.2513,-88.0778,2.148,0.9,1111122 
DISL,ioos:station:DISL:DISL:1,2013-09-01T11:30:00Z,30.2513,-88.0778,2.164,0.78,1111122 
DISL,ioos:station:DISL:DISL:1,2013-09-01T12:00:00Z,30.2513,-88.0778,2.193,0.67,1111122 
DISL,ioos:station:DISL:DISL:1,2013-09-01T12:30:00Z,30.2513,-88.0778,2.184,0.76,1111122 
DISL,ioos:station:DISL:DISL:1,2013-09-01T13:00:00Z,30.2513,-88.0778,2.191,0.72,1111122 
DISL,ioos:station:DISL:DISL:1,2013-09-01T13:30:00Z,30.2513,-88.0778,2.191,0.69,1111122 
DISL,ioos:station:DISL:DISL:1,2013-09-01T14:00:00Z,30.2513,-88.0778,2.173,0.81,1111122 
DISL,ioos:station:DISL:DISL:1,2013-09-01T14:30:00Z,30.2513,-88.0778,2.175,0.76,1111122 
DISL,ioos:station:DISL:DISL:1,2013-09-01T15:00:00Z,30.2513,-88.0778,2.164,0.9,1111122 
DISL,ioos:station:DISL:DISL:1,2013-09-01T15:30:00Z,30.2513,-88.0778,2.15,1.0,1111122 
DISL,ioos:station:DISL:DISL:1,2013-09-01T16:00:00Z,30.2513,-88.0778,2.114,0.93,1111122 
DISL,ioos:station:DISL:DISL:1,2013-09-01T16:30:00Z,30.2513,-88.0778,2.093,0.91,1111122 
DISL,ioos:station:DISL:DISL:1,2013-09-01T17:00:00Z,30.2513,-88.0778,2.058,1.01,1111122 
DISL,ioos:station:DISL:DISL:1,2013-09-01T17:30:00Z,30.2513,-88.0778,2.04,1.03,1111122 
DISL,ioos:station:DISL:DISL:1,2013-09-01T18:00:00Z,30.2513,-88.0778,1.986,1.1,1111122 
DISL,ioos:station:DISL:DISL:1,2013-09-01T18:30:00Z,30.2513,-88.0778,1.949,1.19,1111122 
DISL,ioos:station:DISL:DISL:1,2013-09-01T19:00:00Z,30.2513,-88.0778,1.931,1.14,1111122 
DISL,ioos:station:DISL:DISL:1,2013-09-01T19:30:00Z,30.2513,-88.0778,1.906,1.07,1111122 
DISL,ioos:station:DISL:DISL:1,2013-09-01T20:00:00Z,30.2513,-88.0778,1.873,1.21,1111122 
DISL,ioos:station:DISL:DISL:1,2013-09-01T20:30:00Z,30.2513,-88.0778,1.84,1.28,1111122 
DISL,ioos:station:DISL:DISL:1,2013-09-01T21:00:00Z,30.2513,-88.0778,1.805,1.23,1111122 
DISL,ioos:station:DISL:DISL:1,2013-09-01T21:30:00Z,30.2513,-88.0778,1.81,1.26,1111122 
DISL,ioos:station:DISL:DISL:1,2013-09-01T22:00:00Z,30.2513,-88.0778,1.806,1.19,1111122 
DISL,ioos:station:DISL:DISL:1,2013-09-01T22:30:00Z,30.2513,-88.0778,1.8,1.19,1111122 
DISL,ioos:station:DISL:DISL:1,2013-09-01T23:00:00Z,30.2513,-88.0778,1.796,1.28,1111122 
DISL,ioos:station:DISL:DISL:1,2013-09-01T23:30:00Z,30.2513,-88.0778,1.788,1.17,1111122 
DISL,ioos:station:DISL:DISL:1,2013-09-02T00:00:00Z,30.2513,-88.0778,1.786,1.19,1111122 
DISL,ioos:station:DISL:DISL:1,2013-09-02T00:30:00Z,30.2513,-88.0778,1.794,1.06,1111122 
DISL,ioos:station:DISL:DISL:1,2013-09-02T01:00:00Z,30.2513,-88.0778,1.799,0.97,1111122 
DISL,ioos:station:DISL:DISL:1,2013-09-02T01:30:00Z,30.2513,-88.0778,1.822,0.95,1111122 
DISL,ioos:station:DISL:DISL:1,2013-09-02T02:00:00Z,30.2513,-88.0778,1.823,1.09,1111122 
DISL,ioos:station:DISL:DISL:1,2013-09-02T02:30:00Z,30.2513,-88.0778,1.862,0.96,1111122 
DISL,ioos:station:DISL:DISL:1,2013-09-02T03:00:00Z,30.2513,-88.0778,1.858,0.99,1111122 
DISL,ioos:station:DISL:DISL:1,2013-09-02T03:30:00Z,30.2513,-88.0778,1.885,0.9,1111122 
DISL,ioos:station:DISL:DISL:1,2013-09-02T04:00:00Z,30.2513,-88.0778,1.864,0.93,1111122 
DISL,ioos:station:DISL:DISL:1,2013-09-02T04:30:00Z,30.2513,-88.0778,1.876,1.04,1111122 
DISL,ioos:station:DISL:DISL:1,2013-09-02T05:00:00Z,30.2513,-88.0778,1.894,0.89,1111122 
DISL,ioos:station:DISL:DISL:1,2013-09-02T05:30:00Z,30.2513,-88.0778,1.923,0.92,1111122 
DISL,ioos:station:DISL:DISL:1,2013-09-02T06:00:00Z,30.2513,-88.0778,1.926,0.88,1111122 
DISL,ioos:station:DISL:DISL:1,2013-09-02T06:30:00Z,30.2513,-88.0778,1.943,0.95,1111122 
DISL,ioos:station:DISL:DISL:1,2013-09-02T07:00:00Z,30.2513,-88.0778,1.955,1.21,1111122 
DISL,ioos:station:DISL:DISL:1,2013-09-02T07:30:00Z,30.2513,-88.0778,1.977,1.08,1111122 
DISL,ioos:station:DISL:DISL:1,2013-09-02T08:00:00Z,30.2513,-88.0778,1.978,1.08,1111122 
DISL,ioos:station:DISL:DISL:1,2013-09-02T08:30:00Z,30.2513,-88.0778,2.006,1.02,1111122 
DISL,ioos:station:DISL:DISL:1,2013-09-02T09:00:00Z,30.2513,-88.0778,2.043,0.97,1111122 
DISL,ioos:station:DISL:DISL:1,2013-09-02T09:30:00Z,30.2513,-88.0778,2.064,0.78,1111122 
DISL,ioos:station:DISL:DISL:1,2013-09-02T10:00:00Z,30.2513,-88.0778,2.089,0.85,1111122 
DISL,ioos:station:DISL:DISL:1,2013-09-02T10:30:00Z,30.2513,-88.0778,2.097,0.88,1111122 
DISL,ioos:station:DISL:DISL:1,2013-09-02T11:00:00Z,30.2513,-88.0778,2.133,0.91,1111122 
DISL,ioos:station:DISL:DISL:1,2013-09-02T11:30:00Z,30.2513,-88.0778,2.137,0.87,1111122 
DISL,ioos:station:DISL:DISL:1,2013-09-02T12:00:00Z,30.2513,-88.0778,2.149,0.91,1111122 
DISL,ioos:station:DISL:DISL:1,2013-09-02T12:30:00Z,30.2513,-88.0778,2.171,0.83,1111122 
DISL,ioos:station:DISL:DISL:1,2013-09-02T13:00:00Z,30.2513,-88.0778,2.174,0.93,1111122 
DISL,ioos:station:DISL:DISL:1,2013-09-02T13:30:00Z,30.2513,-88.0778,2.168,0.97,1111122 
DISL,ioos:station:DISL:DISL:1,2013-09-02T14:00:00Z,30.2513,-88.0778,2.169,0.94,1111122 
DISL,ioos:station:DISL:DISL:1,2013-09-02T14:30:00Z,30.2513,-88.0778,2.163,0.93,1111122 
DISL,ioos:station:DISL:DISL:1,2013-09-02T15:00:00Z,30.2513,-88.0778,2.177,0.98,1111122 
DISL,ioos:station:DISL:DISL:1,2013-09-02T15:30:00Z,30.2513,-88.0778,2.166,0.95,1111122 
DISL,ioos:station:DISL:DISL:1,2013-09-02T16:00:00Z,30.2513,-88.0778,2.115,0.99,1111122 
DISL,ioos:station:DISL:DISL:1,2013-09-02T16:30:00Z,30.2513,-88.0778,2.102,1.03,1111122 
DISL,ioos:station:DISL:DISL:1,2013-09-02T17:00:00Z,30.2513,-88.0778,2.058,1.0,1111122 
DISL,ioos:station:DISL:DISL:1,2013-09-02T17:30:00Z,30.2513,-88.0778,2.023,1.05,1111122 
DISL,ioos:station:DISL:DISL:1,2013-09-02T18:00:00Z,30.2513,-88.0778,2.003,0.99,1111122 
DISL,ioos:station:DISL:DISL:1,2013-09-02T18:30:00Z,30.2513,-88.0778,1.965,1.07,1111122 
DISL,ioos:station:DISL:DISL:1,2013-09-02T19:00:00Z,30.2513,-88.0778,1.925,1.04,1111122 
DISL,ioos:station:DISL:DISL:1,2013-09-02T19:30:00Z,30.2513,-88.0778,1.889,0.96,1111122 
DISL,ioos:station:DISL:DISL:1,2013-09-02T20:00:00Z,30.2513,-88.0778,1.854,1.15,1111122 
DISL,ioos:station:DISL:DISL:1,2013-09-02T20:30:00Z,30.2513,-88.0778,1.844,1.14,1111122 
DISL,ioos:station:DISL:DISL:1,2013-09-02T21:00:00Z,30.2513,-88.0778,1.799,1.28,1111122 
DISL,ioos:station:DISL:DISL:1,2013-09-02T21:30:00Z,30.2513,-88.0778,1.774,1.37,1111122 
DISL,ioos:station:DISL:DISL:1,2013-09-02T22:00:00Z,30.2513,-88.0778,1.796,1.34,1111122 
DISL,ioos:station:DISL:DISL:1,2013-09-02T22:30:00Z,30.2513,-88.0778,1.766,1.26,1111122 
DISL,ioos:station:DISL:DISL:1,2013-09-02T23:00:00Z,30.2513,-88.0778,1.766,1.25,1111122 
DISL,ioos:station:DISL:DISL:1,2013-09-02T23:30:00Z,30.2513,-88.0778,1.76,1.25,1111122 
DISL,ioos:station:DISL:DISL:1,2013-09-03T00:00:00Z,30.2513,-88.0778,1.787,1.23,1111122 
DISL,ioos:station:DISL:DISL:1,2013-09-03T00:30:00Z,30.2513,-88.0778,1.762,1.09,1111122 
DISL,ioos:station:DISL:DISL:1,2013-09-03T01:00:00Z,30.2513,-88.0778,1.777,1.11,1111122 
DISL,ioos:station:DISL:DISL:1,2013-09-03T01:30:00Z,30.2513,-88.0778,1.788,1.1,1111122 
DISL,ioos:station:DISL:DISL:1,2013-09-03T02:00:00Z,30.2513,-88.0778,1.827,1.07,1111122 
DISL,ioos:station:DISL:DISL:1,2013-09-03T02:30:00Z,30.2513,-88.0778,1.827,1.06,1111122 
DISL,ioos:station:DISL:DISL:1,2013-09-03T03:00:00Z,30.2513,-88.0778,1.857,1.02,1111122 
DISL,ioos:station:DISL:DISL:1,2013-09-03T03:30:00Z,30.2513,-88.0778,1.865,1.14,1111122 
DISL,ioos:station:DISL:DISL:1,2013-09-03T04:00:00Z,30.2513,-88.0778,1.885,1.04,1111122 
DISL,ioos:station:DISL:DISL:1,2013-09-03T04:30:00Z,30.2513,-88.0778,1.917,1.0,1111122 
DISL,ioos:station:DISL:DISL:1,2013-09-03T05:00:00Z,30.2513,-88.0778,1.919,1.01,1111122 
DISL,ioos:station:DISL:DISL:1,2013-09-03T05:30:00Z,30.2513,-88.0778,1.92,0.92,1111122 
DISL,ioos:station:DISL:DISL:1,2013-09-03T06:00:00Z,30.2513,-88.0778,1.939,0.92,1111122 
DISL,ioos:station:DISL:DISL:1,2013-09-03T06:30:00Z,30.2513,-88.0778,1.95,0.91,1111122 
DISL,ioos:station:DISL:DISL:1,2013-09-03T07:00:00Z,30.2513,-88.0778,1.957,0.87,1111122 
DISL,ioos:station:DISL:DISL:1,2013-09-03T07:30:00Z,30.2513,-88.0778,1.956,0.93,1111122 
DISL,ioos:station:DISL:DISL:1,2013-09-03T08:00:00Z,30.2513,-88.0778,1.983,0.85,1111122 
DISL,ioos:station:DISL:DISL:1,2013-09-03T08:30:00Z,30.2513,-88.0778,2.003,0.71,1111122 
DISL,ioos:station:DISL:DISL:1,2013-09-03T09:00:00Z,30.2513,-88.0778,2.019,0.82,1111122 
DISL,ioos:station:DISL:DISL:1,2013-09-03T09:30:00Z,30.2513,-88.0778,2.039,0.79,1111122 
DISL,ioos:station:DISL:DISL:1,2013-09-03T10:00:00Z,30.2513,-88.0778,2.064,0.65,1111122 
DISL,ioos:station:DISL:DISL:1,2013-09-03T10:30:00Z,30.2513,-88.0778,2.081,0.58,1111122 
DISL,ioos:station:DISL:DISL:1,2013-09-03T11:00:00Z,30.2513,-88.0778,2.097,0.62,1111122 
DISL,ioos:station:DISL:DISL:1,2013-09-03T11:30:00Z,30.2513,-88.0778,2.098,0.68,1111122 
DISL,ioos:station:DISL:DISL:1,2013-09-03T12:00:00Z,30.2513,-88.0778,2.11,0.58,1111122 
DISL,ioos:station:DISL:DISL:1,2013-09-03T12:30:00Z,30.2513,-88.0778,2.14,0.65,1111122 
DISL,ioos:station:DISL:DISL:1,2013-09-03T13:00:00Z,30.2513,-88.0778,2.154,0.65,1111122 
DISL,ioos:station:DISL:DISL:1,2013-09-03T13:30:00Z,30.2513,-88.0778,2.153,0.67,1111122 
DISL,ioos:station:DISL:DISL:1,2013-09-03T14:00:00Z,30.2513,-88.0778,2.151,0.7,1111122 
DISL,ioos:station:DISL:DISL:1,2013-09-03T14:30:00Z,30.2513,-88.0778,2.14,0.65,1111122 
DISL,ioos:station:DISL:DISL:1,2013-09-03T15:00:00Z,30.2513,-88.0778,2.152,0.6,1111122 
DISL,ioos:station:DISL:DISL:1,2013-09-03T15:30:00Z,30.2513,-88.0778,2.138,0.65,1111122 
DISL,ioos:station:DISL:DISL:1,2013-09-03T16:00:00Z,30.2513,-88.0778,2.161,0.74,1111122 
DISL,ioos:station:DISL:DISL:1,2013-09-03T16:30:00Z,30.2513,-88.0778,2.121,0.82,1111122 
DISL,ioos:station:DISL:DISL:1,2013-09-03T17:00:00Z,30.2513,-88.0778,2.119,0.75,1111122 
DISL,ioos:station:DISL:DISL:1,2013-09-03T17:30:00Z,30.2513,-88.0778,2.048,0.83,1111122 
DISL,ioos:station:DISL:DISL:1,2013-09-03T18:00:00Z,30.2513,-88.0778,2.005,0.83,1111122 
DISL,ioos:station:DISL:DISL:1,2013-09-03T18:30:00Z,30.2513,-88.0778,1.988,0.91,1111122 
DISL,ioos:station:DISL:DISL:1,2013-09-03T19:00:00Z,30.2513,-88.0778,1.937,1.03,1111122 
DISL,ioos:station:DISL:DISL:1,2013-09-03T19:30:00Z,30.2513,-88.0778,1.914,0.84,1111122 
DISL,ioos:station:DISL:DISL:1,2013-09-03T20:00:00Z,30.2513,-88.0778,1.88,0.95,1111122 
DISL,ioos:station:DISL:DISL:1,2013-09-03T20:30:00Z,30.2513,-88.0778,1.842,0.74,1111122 
DISL,ioos:station:DISL:DISL:1,2013-09-03T21:00:00Z,30.2513,-88.0778,1.814,0.83,1111122 
DISL,ioos:station:DISL:DISL:1,2013-09-03T21:30:00Z,30.2513,-88.0778,1.815,0.79,1111122 
DISL,ioos:station:DISL:DISL:1,2013-09-03T22:00:00Z,30.2513,-88.0778,1.81,0.95,1111122 
DISL,ioos:station:DISL:DISL:1,2013-09-03T22:30:00Z,30.2513,-88.0778,1.84,0.99,1111122 
DISL,ioos:station:DISL:DISL:1,2013-09-03T23:00:00Z,30.2513,-88.0778,1.908,1.0,1111122 
DISL,ioos:station:DISL:DISL:1,2013-09-03T23:30:00Z,30.2513,-88.0778,2.023,0.85,1111122 
DISL,ioos:station:DISL:DISL:1,2013-09-04T00:00:00Z,30.2513,-88.0778,1.867,0.79,1111122 
DISL,ioos:station:DISL:DISL:1,2013-09-04T00:30:00Z,30.2513,-88.0778,1.822,0.85,1111122 
DISL,ioos:station:DISL:DISL:1,2013-09-04T01:00:00Z,30.2513,-88.0778,1.834,0.86,1111122 
DISL,ioos:station:DISL:DISL:1,2013-09-04T01:30:00Z,30.2513,-88.0778,1.87,0.87,1111122 
DISL,ioos:station:DISL:DISL:1,2013-09-04T02:00:00Z,30.2513,-88.0778,1.861,0.81,1111122 
DISL,ioos:station:DISL:DISL:1,2013-09-04T02:30:00Z,30.2513,-88.0778,1.83,0.77,1111122 
DISL,ioos:station:DISL:DISL:1,2013-09-04T03:00:00Z,30.2513,-88.0778,1.806,0.77,1111122 
DISL,ioos:station:DISL:DISL:1,2013-09-04T03:30:00Z,30.2513,-88.0778,1.841,0.84,1111122 
DISL,ioos:station:DISL:DISL:1,2013-09-04T04:00:00Z,30.2513,-88.0778,1.873,0.78,1111122 
DISL,ioos:station:DISL:DISL:1,2013-09-04T04:30:00Z,30.2513,-88.0778,1.901,0.79,1111122 
DISL,ioos:station:DISL:DISL:1,2013-09-04T05:00:00Z,30.2513,-88.0778,1.898,0.76,1111122 
DISL,ioos:station:DISL:DISL:1,2013-09-04T05:30:00Z,30.2513,-88.0778,1.917,0.71,1111122 
DISL,ioos:station:DISL:DISL:1,2013-09-04T06:00:00Z,30.2513,-88.0778,1.941,0.7,1111122 
DISL,ioos:station:DISL:DISL:1,2013-09-04T06:30:00Z,30.2513,-88.0778,1.92,0.72,1111122 
DISL,ioos:station:DISL:DISL:1,2013-09-04T07:00:00Z,30.2513,-88.0778,1.936,0.67,1111122 
DISL,ioos:station:DISL:DISL:1,2013-09-04T07:30:00Z,30.2513,-88.0778,1.954,0.73,1111122 
DISL,ioos:station:DISL:DISL:1,2013-09-04T08:00:00Z,30.2513,-88.0778,1.966,0.62,1111122 
DISL,ioos:station:DISL:DISL:1,2013-09-04T08:30:00Z,30.2513,-88.0778,1.971,0.73,1111122 
DISL,ioos:station:DISL:DISL:1,2013-09-04T09:00:00Z,30.2513,-88.0778,1.982,0.75,1111122 
DISL,ioos:station:DISL:DISL:1,2013-09-04T09:30:00Z,30.2513,-88.0778,2.008,0.86,1111122 
DISL,ioos:station:DISL:DISL:1,2013-09-04T10:00:00Z,30.2513,-88.0778,2.025,0.81,1111122 
DISL,ioos:station:DISL:DISL:1,2013-09-04T10:30:00Z,30.2513,-88.0778,2.04,0.72,1111122 
DISL,ioos:station:DISL:DISL:1,2013-09-04T11:00:00Z,30.2513,-88.0778,2.032,0.57,1111122 
DISL,ioos:station:DISL:DISL:1,2013-09-04T11:30:00Z,30.2513,-88.0778,2.043,0.56,1111122 
DISL,ioos:station:DISL:DISL:1,2013-09-04T12:00:00Z,30.2513,-88.0778,2.055,0.54,1111122 
DISL,ioos:station:DISL:DISL:1,2013-09-04T12:30:00Z,30.2513,-88.0778,2.072,0.51,1111122 
DISL,ioos:station:DISL:DISL:1,2013-09-04T13:00:00Z,30.2513,-88.0778,2.088,0.52,1111122 
DISL,ioos:station:DISL:DISL:1,2013-09-04T13:30:00Z,30.2513,-88.0778,2.102,0.42,1111122 
DISL,ioos:station:DISL:DISL:1,2013-09-04T14:00:00Z,30.2513,-88.0778,2.117,0.41,1111122 
DISL,ioos:station:DISL:DISL:1,2013-09-04T14:30:00Z,30.2513,-88.0778,2.132,0.43,1111122 
DISL,ioos:station:DISL:DISL:1,2013-09-04T15:00:00Z,30.2513,-88.0778,2.148,0.51,1111122 
DISL,ioos:station:DISL:DISL:1,2013-09-04T15:30:00Z,30.2513,-88.0778,2.137,0.61,1111122 
DISL,ioos:station:DISL:DISL:1,2013-09-04T16:00:00Z,30.2513,-88.0778,2.139,0.65,1111122 
DISL,ioos:station:DISL:DISL:1,2013-09-04T16:30:00Z,30.2513,-88.0778,2.13,0.61,1111122 
DISL,ioos:station:DISL:DISL:1,2013-09-04T17:00:00Z,30.2513,-88.0778,2.119,0.74,1111122 
DISL,ioos:station:DISL:DISL:1,2013-09-04T17:30:00Z,30.2513,-88.0778,2.104,0.63,1111122 
DISL,ioos:station:DISL:DISL:1,2013-09-04T18:00:00Z,30.2513,-88.0778,2.07,0.52,1111122 
DISL,ioos:station:DISL:DISL:1,2013-09-04T18:30:00Z,30.2513,-88.0778,2.042,0.65,1111122 
DISL,ioos:station:DISL:DISL:1,2013-09-04T19:00:00Z,30.2513,-88.0778,2.007,0.6,1111122 
DISL,ioos:station:DISL:DISL:1,2013-09-04T19:30:00Z,30.2513,-88.0778,1.972,0.74,1111122 
DISL,ioos:station:DISL:DISL:1,2013-09-04T20:00:00Z,30.2513,-88.0778,1.936,0.73,1111122 
DISL,ioos:station:DISL:DISL:1,2013-09-04T20:30:00Z,30.2513,-88.0778,1.902,0.84,1111122 
DISL,ioos:station:DISL:DISL:1,2013-09-04T21:00:00Z,30.2513,-88.0778,1.851,1.43,1111122 
DISL,ioos:station:DISL:DISL:1,2013-09-04T21:30:00Z,30.2513,-88.0778,1.857,1.46,1111122 
DISL,ioos:station:DISL:DISL:1,2013-09-04T22:00:00Z,30.2513,-88.0778,1.862,1.4,1111122 
DISL,ioos:station:DISL:DISL:1,2013-09-04T22:30:00Z,30.2513,-88.0778,1.854,1.39,1111122 
DISL,ioos:station:DISL:DISL:1,2013-09-04T23:00:00Z,30.2513,-88.0778,1.874,1.28,1111122 
DISL,ioos:station:DISL:DISL:1,2013-09-04T23:30:00Z,30.2513,-88.0778,1.867,1.29,1111122 
DISL,ioos:station:DISL:DISL:1,2013-09-05T00:00:00Z,30.2513,-88.0778,1.857,1.26,1111122 
DISL,ioos:station:DISL:DISL:1,2013-09-05T00:30:00Z,30.2513,-88.0778,1.865,1.52,1111122 
DISL,ioos:station:DISL:DISL:1,2013-09-05T01:00:00Z,30.2513,-88.0778,1.869,1.38,1111122 
DISL,ioos:station:DISL:DISL:1,2013-09-05T01:30:00Z,30.2513,-88.0778,1.877,1.41,1111122 
DISL,ioos:station:DISL:DISL:1,2013-09-05T02:00:00Z,30.2513,-88.0778,1.911,1.24,1111122 
DISL,ioos:station:DISL:DISL:1,2013-09-05T02:30:00Z,30.2513,-88.0778,1.909,1.09,1111122 
DISL,ioos:station:DISL:DISL:1,2013-09-05T03:00:00Z,30.2513,-88.0778,1.894,1.04,1111122 
DISL,ioos:station:DISL:DISL:1,2013-09-05T03:30:00Z,30.2513,-88.0778,1.876,0.92,1111122 
DISL,ioos:station:DISL:DISL:1,2013-09-05T04:00:00Z,30.2513,-88.0778,1.911,0.96,1111122 
DISL,ioos:station:DISL:DISL:1,2013-09-05T04:30:00Z,30.2513,-88.0778,1.925,0.82,1111122 
DISL,ioos:station:DISL:DISL:1,2013-09-05T05:00:00Z,30.2513,-88.0778,1.933,0.79,1111122 
DISL,ioos:station:DISL:DISL:1,2013-09-05T05:30:00Z,30.2513,-88.0778,1.931,0.83,1111122 
DISL,ioos:station:DISL:DISL:1,2013-09-05T06:00:00Z,30.2513,-88.0778,1.949,1.1,1111122 
DISL,ioos:station:DISL:DISL:1,2013-09-05T06:30:00Z,30.2513,-88.0778,1.953,1.15,1111122 
DISL,ioos:station:DISL:DISL:1,2013-09-05T07:00:00Z,30.2513,-88.0778,1.957,1.24,1111122 
DISL,ioos:station:DISL:DISL:1,2013-09-05T07:30:00Z,30.2513,-88.0778,1.935,1.11,1111122 
DISL,ioos:station:DISL:DISL:1,2013-09-05T08:00:00Z,30.2513,-88.0778,1.936,1.13,1111122 
DISL,ioos:station:DISL:DISL:1,2013-09-05T08:30:00Z,30.2513,-88.0778,1.936,0.95,1111122 
DISL,ioos:station:DISL:DISL:1,2013-09-05T09:00:00Z,30.2513,-88.0778,1.965,0.97,1111122 
DISL,ioos:station:DISL:DISL:1,2013-09-05T09:30:00Z,30.2513,-88.0778,1.963,0.97,1111122 
DISL,ioos:station:DISL:DISL:1,2013-09-05T10:00:00Z,30.2513,-88.0778,1.974,1.0,1111122 
DISL,ioos:station:DISL:DISL:1,2013-09-05T10:30:00Z,30.2513,-88.0778,1.989,0.96,1111122 
DISL,ioos:station:DISL:DISL:1,2013-09-05T11:00:00Z,30.2513,-88.0778,2.024,0.83,1111122 
DISL,ioos:station:DISL:DISL:1,2013-09-05T11:30:00Z,30.2513,-88.0778,2.025,0.77,1111122 
DISL,ioos:station:DISL:DISL:1,2013-09-05T12:00:00Z,30.2513,-88.0778,2.047,0.7,1111122 
DISL,ioos:station:DISL:DISL:1,2013-09-05T12:30:00Z,30.2513,-88.0778,2.036,0.68,1111122 
DISL,ioos:station:DISL:DISL:1,2013-09-05T13:00:00Z,30.2513,-88.0778,2.048,0.49,1111122 
DISL,ioos:station:DISL:DISL:1,2013-09-05T13:30:00Z,30.2513,-88.0778,2.064,0.47,1111122 
DISL,ioos:station:DISL:DISL:1,2013-09-05T14:00:00Z,30.2513,-88.0778,2.075,0.41,1111122 
DISL,ioos:station:DISL:DISL:1,2013-09-05T14:30:00Z,30.2513,-88.0778,2.073,0.44,1111122 
DISL,ioos:station:DISL:DISL:1,2013-09-05T15:00:00Z,30.2513,-88.0778,2.082,0.41,1111122 
DISL,ioos:station:DISL:DISL:1,2013-09-05T15:30:00Z,30.2513,-88.0778,2.096,0.45,1111122 
DISL,ioos:station:DISL:DISL:1,2013-09-05T16:00:00Z,30.2513,-88.0778,2.106,0.41,1111122 
DISL,ioos:station:DISL:DISL:1,2013-09-05T16:30:00Z,30.2513,-88.0778,2.118,0.59,1111122 
DISL,ioos:station:DISL:DISL:1,2013-09-05T17:00:00Z,30.2513,-88.0778,2.104,0.62,1111122 
DISL,ioos:station:DISL:DISL:1,2013-09-05T17:30:00Z,30.2513,-88.0778,2.09,0.55,1111122 
DISL,ioos:station:DISL:DISL:1,2013-09-05T18:00:00Z,30.2513,-88.0778,2.072,0.62,1111122 
DISL,ioos:station:DISL:DISL:1,2013-09-05T18:30:00Z,30.2513,-88.0778,2.076,0.6,1111122 
DISL,ioos:station:DISL:DISL:1,2013-09-05T19:00:00Z,30.2513,-88.0778,2.022,0.6,1111122 
DISL,ioos:station:DISL:DISL:1,2013-09-05T19:30:00Z,30.2513,-88.0778,1.997,0.9,1111122 
DISL,ioos:station:DISL:DISL:1,2013-09-05T20:00:00Z,30.2513,-88.0778,1.95,0.86,1111122 
DISL,ioos:station:DISL:DISL:1,2013-09-05T20:30:00Z,30.2513,-88.0778,1.906,0.93,1111122 
DISL,ioos:station:DISL:DISL:1,2013-09-05T21:00:00Z,30.2513,-88.0778,1.911,1.12,1111122 
DISL,ioos:station:DISL:DISL:1,2013-09-05T21:30:00Z,30.2513,-88.0778,1.88,1.13,1111122 
DISL,ioos:station:DISL:DISL:1,2013-09-05T22:00:00Z,30.2513,-88.0778,1.874,1.12,1111122 
DISL,ioos:station:DISL:DISL:1,2013-09-05T22:30:00Z,30.2513,-88.0778,1.878,1.12,1111122 
DISL,ioos:station:DISL:DISL:1,2013-09-05T23:00:00Z,30.2513,-88.0778,1.895,1.03,1111122 
DISL,ioos:station:DISL:DISL:1,2013-09-05T23:30:00Z,30.2513,-88.0778,1.904,0.87,1111122 
DISL,ioos:station:DISL:DISL:1,2013-09-06T00:00:00Z,30.2513,-88.0778,1.915,0.91,1111122 
DISL,ioos:station:DISL:DISL:1,2013-09-06T00:30:00Z,30.2513,-88.0778,1.911,0.64,1111122 
DISL,ioos:station:DISL:DISL:1,2013-09-06T01:00:00Z,30.2513,-88.0778,1.94,0.69,1111122 
DISL,ioos:station:DISL:DISL:1,2013-09-06T01:30:00Z,30.2513,-88.0778,1.956,0.86,1111122 
DISL,ioos:station:DISL:DISL:1,2013-09-06T02:00:00Z,30.2513,-88.0778,1.973,0.54,1111122 
DISL,ioos:station:DISL:DISL:1,2013-09-06T02:30:00Z,30.2513,-88.0778,1.977,0.6,1111122 
DISL,ioos:station:DISL:DISL:1,2013-09-06T03:00:00Z,30.2513,-88.0778,1.988,0.51,1111122 
DISL,ioos:station:DISL:DISL:1,2013-09-06T03:30:00Z,30.2513,-88.0778,1.989,0.42,1111122 
DISL,ioos:station:DISL:DISL:1,2013-09-06T04:00:00Z,30.2513,-88.0778,1.983,0.47,1111122 
DISL,ioos:station:DISL:DISL:1,2013-09-06T04:30:00Z,30.2513,-88.0778,1.977,0.67,1111122 
DISL,ioos:station:DISL:DISL:1,2013-09-06T05:00:00Z,30.2513,-88.0778,1.974,0.84,1111122 
DISL,ioos:station:DISL:DISL:1,2013-09-06T05:30:00Z,30.2513,-88.0778,1.986,0.85,1111122 
DISL,ioos:station:DISL:DISL:1,2013-09-06T06:00:00Z,30.2513,-88.0778,1.988,0.74,1111122 
DISL,ioos:station:DISL:DISL:1,2013-09-06T06:30:00Z,30.2513,-88.0778,1.969,0.84,1111122 
DISL,ioos:station:DISL:DISL:1,2013-09-06T07:00:00Z,30.2513,-88.0778,1.957,0.77,1111122 
DISL,ioos:station:DISL:DISL:1,2013-09-06T07:30:00Z,30.2513,-88.0778,1.958,0.92,1111122 
DISL,ioos:station:DISL:DISL:1,2013-09-06T08:00:00Z,30.2513,-88.0778,1.967,1.15,1111122 
DISL,ioos:station:DISL:DISL:1,2013-09-06T08:30:00Z,30.2513,-88.0778,1.95,1.15,1111122 
DISL,ioos:station:DISL:DISL:1,2013-09-06T09:00:00Z,30.2513,-88.0778,1.963,1.11,1111122 
DISL,ioos:station:DISL:DISL:1,2013-09-06T09:30:00Z,30.2513,-88.0778,1.971,1.08,1111122 
DISL,ioos:station:DISL:DISL:1,2013-09-06T10:00:00Z,30.2513,-88.0778,1.972,1.16,1111122 
DISL,ioos:station:DISL:DISL:1,2013-09-06T10:30:00Z,30.2513,-88.0778,1.953,1.04,1111122 
DISL,ioos:station:DISL:DISL:1,2013-09-06T11:00:00Z,30.2513,-88.0778,1.96,1.01,1111122 
DISL,ioos:station:DISL:DISL:1,2013-09-06T11:30:00Z,30.2513,-88.0778,1.971,0.91,1111122 
DISL,ioos:station:DISL:DISL:1,2013-09-06T12:00:00Z,30.2513,-88.0778,1.981,0.99,1111122 
DISL,ioos:station:DISL:DISL:1,2013-09-06T12:30:00Z,30.2513,-88.0778,1.976,0.88,1111122 
DISL,ioos:station:DISL:DISL:1,2013-09-06T13:00:00Z,30.2513,-88.0778,1.848,6.49,1111122 
DISL,ioos:station:DISL:DISL:1,2013-09-06T13:30:00Z,30.2513,-88.0778,1.893,6.53,1111122 
DISL,ioos:station:DISL:DISL:1,2013-09-06T14:00:00Z,30.2513,-88.0778,1.9,6.5,1111122 
DISL,ioos:station:DISL:DISL:1,2013-09-06T14:30:00Z,30.2513,-88.0778,1.926,6.62,1111122 
DISL,ioos:station:DISL:DISL:1,2013-09-06T15:00:00Z,30.2513,-88.0778,1.852,6.58,1111122 
DISL,ioos:station:DISL:DISL:1,2013-09-06T15:30:00Z,30.2513,-88.0778,1.826,4.83,1111122 